TimeMDT,TemperatureF,Dew PointF,Humidity,Sea Level PressureIn,VisibilityMPH,Wind Direction,Wind SpeedMPH,Gust SpeedMPH,PrecipitationIn,Events,Conditions,WindDirDegrees,DateUTC
12:53 AM,55.9,39.9,55,29.62,10.0,SSW,4.6,-,N/A,,Clear,210,2013-05-28 06:53:00
1:53 AM,53.1,39.9,61,29.65,10.0,Calm,Calm,-,N/A,,Clear,0,2013-05-28 07:53:00
2:53 AM,51.1,41.0,68,29.65,10.0,West,4.6,-,N/A,,Clear,280,2013-05-28 08:53:00
3:53 AM,48.9,43.0,80,29.69,10.0,North,3.5,-,N/A,,Clear,360,2013-05-28 09:53:00
4:53 AM,51.1,42.1,71,29.67,10.0,NW,5.8,-,N/A,,Clear,320,2013-05-28 10:53:00
5:53 AM,46.9,42.1,83,29.70,10.0,South,9.2,-,N/A,,Clear,170,2013-05-28 11:53:00
6:53 AM,54.0,45.0,72,29.71,10.0,SSE,3.5,-,N/A,,Clear,150,2013-05-28 12:53:00
7:53 AM,62.1,45.0,53,29.69,10.0,SSE,4.6,-,N/A,,Clear,150,2013-05-28 13:53:00
8:53 AM,64.9,46.0,50,29.69,10.0,SSE,4.6,-,N/A,,Clear,160,2013-05-28 14:53:00
9:53 AM,68.0,46.9,47,29.67,10.0,South,9.2,-,N/A,,Clear,170,2013-05-28 15:53:00
10:53 AM,72.0,48.0,43,29.65,10.0,SE,16.1,20.7,N/A,,Clear,140,2013-05-28 16:53:00
11:53 AM,75.0,48.9,40,29.63,10.0,SE,11.5,21.9,N/A,,Clear,130,2013-05-28 17:53:00
12:53 PM,78.1,46.9,33,29.59,10.0,SSW,10.4,27.6,N/A,,Clear,200,2013-05-28 18:53:00
1:53 PM,80.1,41.0,25,29.57,10.0,SE,20.7,29.9,N/A,,Clear,130,2013-05-28 19:53:00
2:53 PM,81.0,39.9,23,29.54,10.0,SE,25.3,32.2,N/A,,Clear,140,2013-05-28 20:53:00
3:53 PM,80.1,41.0,25,29.50,10.0,SE,27.6,35.7,N/A,,Clear,130,2013-05-28 21:53:00
4:17 PM,75.2,42.8,31,29.67,10.0,SSE,15.0,25.3,0.00,Rain-Thunderstorm,Light Thunderstorms and Rain,160,2013-05-28 22:17:00
4:32 PM,80.6,39.2,23,29.65,10.0,SSE,24.2,29.9,0.00,,Overcast,150,2013-05-28 22:32:00
4:53 PM,81.0,39.0,22,29.48,10.0,SSE,23.0,41.4,0.00,,Scattered Clouds,160,2013-05-28 22:53:00
5:53 PM,81.0,37.9,21,29.45,10.0,SSE,26.5,39.1,N/A,,Clear,160,2013-05-28 23:53:00
6:53 PM,79.0,41.0,26,29.43,10.0,SSE,25.3,34.5,N/A,,Clear,160,2013-05-29 00:53:00
7:53 PM,75.0,44.1,33,29.43,10.0,SE,21.9,27.6,N/A,,Clear,140,2013-05-29 01:53:00
8:46 PM,73.4,46.4,38,29.61,10.0,South,18.4,29.9,N/A,,Clear,180,2013-05-29 02:46:00
8:53 PM,73.9,48.9,41,29.45,10.0,South,21.9,27.6,N/A,,Clear,170,2013-05-29 02:53:00
9:53 PM,69.1,55.9,63,29.48,10.0,SE,20.7,31.1,N/A,,Clear,130,2013-05-29 03:53:00
10:53 PM,66.0,57.9,75,29.46,10.0,East,13.8,-,N/A,,Partly Cloudy,80,2013-05-29 04:53:00
11:05 PM,64.4,57.2,77,29.62,10.0,East,13.8,-,N/A,,Mostly Cloudy,90,2013-05-29 05:05:00
11:12 PM,62.6,55.4,77,29.62,10.0,East,15.0,-,N/A,,Mostly Cloudy,80,2013-05-29 05:12:00
11:53 PM,59.0,53.1,81,29.45,10.0,East,18.4,-,N/A,,Overcast,80,2013-05-29 05:53:00